TimePDT,TemperatureF,Dew PointF,Humidity,Sea Level PressureIn,VisibilityMPH,Wind Direction,Wind SpeedMPH,Gust SpeedMPH,PrecipitationIn,Events,Conditions,WindDirDegrees,DateUTC
12:10 AM,51.8,50.0,94,30.01,8.0,South,3.5,-,N/A,,Overcast,180,2013-03-28 07:10:00
12:42 AM,51.8,50.0,94,30.01,4.0,South,4.6,-,N/A,,Overcast,180,2013-03-28 07:42:00
12:56 AM,51.1,50.0,96,30.01,5.0,South,4.6,-,N/A,,Overcast,170,2013-03-28 07:56:00
1:04 AM,51.8,50.0,94,30.01,3.0,South,4.6,-,N/A,,Overcast,170,2013-03-28 08:04:00
1:12 AM,51.8,50.0,94,30.01,2.5,South,4.6,-,N/A,,Overcast,170,2013-03-28 08:12:00
1:20 AM,51.8,50.0,94,30.01,3.0,South,3.5,-,N/A,,Overcast,170,2013-03-28 08:20:00
1:23 AM,51.8,50.0,94,30.01,2.5,SSE,3.5,-,N/A,,Overcast,160,2013-03-28 08:23:00
1:56 AM,51.1,50.0,96,30.02,2.5,South,3.5,-,0.01,Rain,Light Rain,170,2013-03-28 08:56:00
2:07 AM,51.8,50.0,94,30.01,4.0,SE,3.5,-,0.00,,Overcast,140,2013-03-28 09:07:00
2:56 AM,51.1,50.0,96,30.01,5.0,Calm,Calm,-,0.00,Rain,Light Rain,0,2013-03-28 09:56:00
3:03 AM,51.8,50.0,94,30.01,7.0,Calm,Calm,-,0.00,,Overcast,0,2013-03-28 10:03:00
3:09 AM,51.8,50.0,94,30.01,9.0,East,3.5,-,0.00,,Overcast,100,2013-03-28 10:09:00
3:21 AM,51.8,50.0,94,30.00,10.0,East,3.5,-,0.00,,Overcast,80,2013-03-28 10:21:00
3:56 AM,51.1,50.0,96,30.01,10.0,Calm,Calm,-,0.00,,Overcast,0,2013-03-28 10:56:00
4:56 AM,51.1,50.0,96,30.00,10.0,Calm,Calm,-,N/A,,Overcast,0,2013-03-28 11:56:00
5:15 AM,51.8,50.0,94,30.00,8.0,Calm,Calm,-,N/A,,Overcast,0,2013-03-28 12:15:00
5:56 AM,51.1,50.0,96,30.01,10.0,Calm,Calm,-,N/A,,Overcast,0,2013-03-28 12:56:00
6:56 AM,51.1,50.0,96,30.02,10.0,SW,5.8,-,N/A,,Overcast,230,2013-03-28 13:56:00
7:05 AM,51.8,48.2,88,30.02,8.0,SW,4.6,-,N/A,,Overcast,220,2013-03-28 14:05:00
7:17 AM,51.8,48.2,88,30.02,4.0,SW,3.5,-,0.00,Rain,Light Rain,220,2013-03-28 14:17:00
7:39 AM,51.8,50.0,94,30.03,2.5,Calm,Calm,-,0.00,,Overcast,0,2013-03-28 14:39:00
7:56 AM,51.1,48.9,92,30.04,2.5,South,4.6,-,0.00,,Overcast,190,2013-03-28 14:56:00
8:05 AM,51.8,48.2,88,30.04,1.5,South,4.6,-,0.01,Rain,Light Rain,190,2013-03-28 15:05:00
8:26 AM,51.8,50.0,94,30.04,1.2,SSW,3.5,-,0.02,Rain,Light Rain,200,2013-03-28 15:26:00
8:56 AM,51.1,50.0,96,30.05,1.8,South,5.8,-,0.05,Rain,Light Rain,180,2013-03-28 15:56:00
9:23 AM,51.8,50.0,94,30.05,2.0,SSE,4.6,-,0.02,Rain,Light Rain,150,2013-03-28 16:23:00
9:33 AM,51.8,51.8,100,30.06,6.0,South,3.5,-,0.02,,Overcast,170,2013-03-28 16:33:00
9:43 AM,51.8,51.8,100,30.06,7.0,SSE,6.9,-,0.02,,Overcast,150,2013-03-28 16:43:00
9:56 AM,52.0,51.1,97,30.07,5.0,South,6.9,-,0.02,,Overcast,170,2013-03-28 16:56:00
10:21 AM,51.8,51.8,100,30.07,1.8,South,6.9,-,N/A,,Overcast,170,2013-03-28 17:21:00
10:30 AM,51.8,51.8,100,30.07,1.0,South,6.9,-,0.01,,Overcast,170,2013-03-28 17:30:00
10:50 AM,51.8,51.8,100,30.08,2.0,South,6.9,-,0.01,,Overcast,180,2013-03-28 17:50:00
10:56 AM,52.0,51.1,97,30.08,4.0,South,8.1,-,0.01,,Overcast,170,2013-03-28 17:56:00
11:56 AM,53.1,52.0,96,30.09,4.0,SSW,5.8,-,N/A,,Overcast,200,2013-03-28 18:56:00
12:06 PM,53.6,53.6,100,30.09,2.0,South,5.8,-,N/A,,Overcast,190,2013-03-28 19:06:00
12:26 PM,51.8,51.8,100,30.09,6.0,SSW,8.1,-,N/A,,Overcast,210,2013-03-28 19:26:00
12:45 PM,51.8,51.8,100,30.09,10.0,SW,5.8,-,N/A,,Overcast,230,2013-03-28 19:45:00
12:56 PM,53.1,52.0,96,30.10,10.0,SW,5.8,-,N/A,,Overcast,230,2013-03-28 19:56:00
1:56 PM,54.0,51.1,90,30.10,10.0,SW,3.5,-,N/A,,Overcast,230,2013-03-28 20:56:00
2:15 PM,55.4,51.8,88,30.10,10.0,SSW,4.6,-,N/A,,Overcast,210,2013-03-28 21:15:00
2:25 PM,55.4,51.8,88,30.10,10.0,South,5.8,-,N/A,,Overcast,190,2013-03-28 21:25:00
2:44 PM,55.4,51.8,88,30.10,10.0,South,5.8,-,N/A,,Overcast,180,2013-03-28 21:44:00
2:56 PM,54.0,50.0,86,30.10,10.0,South,6.9,-,N/A,,Overcast,180,2013-03-28 21:56:00
3:25 PM,53.6,51.8,94,30.10,6.0,SSW,5.8,-,N/A,,Overcast,210,2013-03-28 22:25:00
3:33 PM,55.4,51.8,88,30.10,5.0,SSW,5.8,-,N/A,,Overcast,200,2013-03-28 22:33:00
3:56 PM,55.0,51.1,86,30.10,10.0,South,4.6,-,N/A,,Overcast,180,2013-03-28 22:56:00
4:10 PM,55.4,51.8,88,30.09,10.0,Calm,Calm,-,N/A,,Mostly Cloudy,0,2013-03-28 23:10:00
4:41 PM,55.4,50.0,82,30.09,10.0,SSW,5.8,-,N/A,,Overcast,200,2013-03-28 23:41:00
4:56 PM,55.9,51.1,84,30.09,10.0,South,3.5,-,N/A,,Overcast,190,2013-03-28 23:56:00
5:14 PM,55.4,51.8,88,30.09,10.0,Calm,Calm,-,N/A,,Overcast,0,2013-03-29 00:14:00
5:56 PM,55.9,48.0,75,30.09,10.0,South,5.8,-,N/A,,Overcast,190,2013-03-29 00:56:00
6:56 PM,54.0,50.0,86,30.11,10.0,Calm,Calm,-,N/A,,Overcast,0,2013-03-29 01:56:00
7:56 PM,53.1,48.9,86,30.12,10.0,Calm,Calm,-,N/A,,Overcast,0,2013-03-29 02:56:00
8:56 PM,54.0,50.0,86,30.13,10.0,ESE,3.5,-,N/A,,Overcast,120,2013-03-29 03:56:00
9:56 PM,53.1,50.0,89,30.14,10.0,Calm,Calm,-,0.01,,Overcast,0,2013-03-29 04:56:00
10:56 PM,53.1,50.0,89,30.14,10.0,Calm,Calm,-,0.00,,Overcast,0,2013-03-29 05:56:00
11:56 PM,53.1,50.0,89,30.14,10.0,Calm,Calm,-,N/A,,Overcast,0,2013-03-29 06:56:00